RH
7 8 9 11 14 11 22 28 23 25 23 25 29 26 26 27 28 35 49 39 27 20 18 18 21 30 23 30 20 50 72 99 96 98 100 100 99 93 91 78 71 74 74 73 74 83 75 72 73
8 10 13 16 9 7 20 22 24 24 22 28 29 28 27 26 32 40 42 32 22 20 19 19 20 19 21 24 20 20 50 78 99 94 96 100 100 99 94 90 75 74 74 74 76 77 77 65 76
8 10 19 15 14 14 18 24 22 22 19 24 26 27 29 30 37 41 34 25 22 20 19 18 18 18 17 14 20 16 20 36 79 99 92 98 98 100 100 94 91 74 72 73 78 78 75 69 75
9 14 21 16 23 26 22 19 21 19 23 16 23 23 33 32 39 40 27 23 22 19 18 16 15 13 12 11 10 10 13 16 45 74 100 95 100 99 100 94 96 84 78 77 78 82 70 74 81
15 16 14 22 28 22 19 19 19 16 16 15 15 19 24 41 32 29 25 22 19 18 17 16 15 14 12 10 9 9 8 10 15 42 76 100 98 100 98 94 96 90 82 83 82 85 74 72 79
20 17 12 16 25 24 19 19 16 15 12 10 10 15 20 32 30 29 25 20 20 20 18 16 15 14 13 11 10 9 8 9 10 19 32 84 100 96 100 100 91 84 85 84 85 89 81 74 77
22 18 25 22 24 24 19 19 14 12 11 10 13 13 22 35 28 27 21 21 22 21 18 15 14 14 14 13 11 10 9 9 8 11 14 44 74 100 100 100 92 80 87 84 86 92 84 78 78
27 18 20 21 12 18 21 16 16 14 12 15 17 14 14 30 23 23 20 22 22 20 15 14 14 14 14 14 13 13 11 10 9 6 14 12 34 92 100 100 100 78 87 90 86 94 87 79 82
8 15 14 15 16 13 18 15 17 19 18 16 17 19 23 18 21 20 23 26 23 17 14 15 16 17 16 15 13 12 12 12 10 9 7 8 14 68 96 100 100 85 75 96 94 96 91 79 85
17 14 16 17 16 15 18 20 18 18 16 16 19 23 19 20 21 25 35 33 25 18 15 16 17 19 18 17 16 13 10 10 13 12 10 7 9 15 90 93 100 100 87 84 99 95 92 79 95
18 15 18 19 22 25 20 20 22 19 16 16 16 19 32 26 23 24 33 27 30 18 15 15 14 18 20 19 18 17 14 11 10 13 14 11 8 8 34 74 96 100 100 95 98 97 91 90 94
16 20 20 24 28 24 20 23 19 19 16 19 22 26 27 36 34 29 32 29 27 21 17 14 14 18 22 22 21 21 18 16 12 11 15 16 11 8 8 22 86 92 100 100 92 99 97 91 88
16 21 23 29 26 28 24 21 18 19 18 22 24 25 27 31 33 35 26 26 24 21 20 20 20 22 23 22 22 23 22 20 18 13 13 18 17 10 7 13 36 68 94 99 100 99 98 92 93
23 24 24 27 23 24 24 19 29 16 20 23 26 26 28 32 33 37 32 25 26 22 22 24 24 25 25 25 25 24 23 23 22 18 13 16 20 16 10 7 30 41 74 81 100 99 97 93 93
19 16 20 20 21 22 24 22 24 17 20 24 23 23 26 30 34 36 35 34 28 26 25 25 27 28 28 28 27 25 25 24 24 22 16 12 20 20 13 8 8 43 58 72 98 95 100 93 95
14 14 18 19 21 23 18 19 12 20 21 20 24 26 28 28 31 35 36 30 28 27 27 28 28 29 30 28 28 27 27 26 25 22 17 12 16 21 17 10 7 18 75 90 78 95 99 90 100
14 22 16 16 26 23 19 15 11 20 20 18 20 21 26 27 29 31 34 34 28 28 29 30 30 31 30 29 29 29 28 24 19 16 13 11 15 22 20 14 8 8 60 95 60 76 93 100 100
18 22 19 19 17 22 23 20 15 16 20 20 17 16 20 22 18 30 30 35 36 28 30 30 32 32 31 30 29 29 28 31 19 10 8 9 16 25 22 18 12 9 15 95 99 90 80 100 99
25 30 34 22 23 26 22 22 18 17 20 20 16 13 17 20 15 18 21 25 30 29 29 30 32 32 32 28 19 25 32 29 26 22 15 14 19 27 24 21 16 10 10 66 99 99 83 78 100
29 38 43 24 26 27 25 24 16 21 19 17 13 12 16 20 12 10 15 21 24 27 32 33 33 33 28 18 18 24 29 19 29 23 23 21 24 29 26 22 19 13 10 26 99 100 100 73 100
28 37 35 39 27 33 34 31 13 18 24 21 21 20 19 20 20 15 13 16 22 25 30 35 35 30 22 19 17 40 52 59 54 61 64 46 29 31 30 24 22 18 12 12 86 100 100 88 90
47 26 33 32 46 56 30 55 16 10 13 16 16 17 17 18 20 12 13 20 28 27 38 33 33 31 23 20 29 52 60 63 64 69 67 54 39 34 33 29 24 22 16 11 38 100 100 98 88
28 35 30 39 54 58 43 61 28 15 10 10 11 13 15 17 22 14 16 18 20 25 28 32 34 31 27 14 39 58 68 72 73 74 76 78 64 43 36 33 27 24 21 12 13 92 100 100 94
31 32 39 40 43 66 55 45 34 16 16 8 9 12 15 18 16 13 14 17 20 22 25 28 37 25 16 37 54 66 72 74 76 78 79 79 80 78 47 37 32 27 25 18 13 54 100 100 100
40 62 92 90 93 58 42 43 58 22 12 9 10 12 16 16 13 13 15 18 23 32 42 40 38 47 49 51 58 70 74 77 78 78 78 82 84 83 84 59 38 32 28 24 16 18 95 100 100
45 61 78 75 50 41 37 55 37 18 14 14 16 17 14 10 15 17 19 29 36 36 38 39 43 50 57 64 73 76 78 77 80 82 83 84 85 89 89 88 65 39 35 28 22 15 75 100 99
52 58 40 67 55 54 34 34 26 16 15 14 13 15 15 18 22 26 33 36 37 36 36 43 47 54 62 75 80 84 85 86 86 86 87 88 89 91 94 95 94 54 50 35 28 18 39 93 100
56 52 68 70 73 73 42 50 39 36 22 16 12 14 20 22 29 38 39 37 36 36 34 41 50 60 74 84 87 88 90 92 94 93 93 92 92 93 93 94 94 91 72 54 33 26 22 81 100
56 66 58 63 53 69 69 54 90 67 70 69 31 29 34 40 43 44 34 28 24 27 26 46 58 70 80 86 90 94 96 97 97 97 94 91 94 96 94 94 93 94 92 89 57 35 22 48 97
66 62 61 54 72 58 65 68 69 86 82 56 47 39 42 52 50 42 34 24 34 30 35 57 65 78 84 92 96 99 100 100 100 100 99 97 95 96 94 93 90 91 92 89 84 61 33 23 89
Wind_Speed
2 3 3 2 3 2 4 5 2 6 3 7 5 5 5 4 4 4 3 10 14 17 20 23 25 27 22 23 26 23 20 6 9 7 6 5 11 14 14 15 16 17 17 17 17 15 15 18 18
4 4 3 1 2 2 4 2 3 3 5 2 2 4 2 3 3 1 1 9 14 17 20 22 23 26 29 22 26 26 22 16 6 12 11 8 9 15 17 17 18 19 18 18 18 17 18 19 20
3 4 1 2 3 4 3 1 3 3 4 4 2 3 1 1 1 2 5 9 13 17 20 22 23 24 27 31 24 25 24 23 14 10 15 15 12 14 17 19 20 21 20 21 20 20 20 20 20
2 2 4 5 9 3 2 2 3 2 1 7 4 3 1 3 1 2 5 10 14 19 22 23 25 25 25 27 30 22 23 22 22 16 14 18 17 16 20 22 22 21 20 21 22 22 22 22 21
3 2 4 5 4 3 2 3 3 3 1 5 7 4 4 3 5 4 6 10 14 18 21 24 26 27 25 24 26 25 20 21 20 22 17 15 21 19 21 22 21 21 21 21 22 24 23 22 21
2 2 3 4 3 3 2 2 2 3 4 5 5 7 4 5 6 5 6 11 15 19 22 24 25 25 24 23 22 25 20 17 17 20 22 21 18 24 20 23 24 23 21 22 23 25 24 24 23
4 3 4 3 3 3 2 3 2 5 7 2 4 5 3 6 7 6 7 11 14 17 19 20 21 21 22 18 19 18 20 18 14 15 23 21 22 22 22 22 26 27 24 24 24 27 26 26 25
6 4 4 1 1 3 3 3 2 4 4 4 2 3 4 4 9 7 8 11 13 14 14 12 15 18 19 22 18 18 17 18 15 13 15 22 22 19 21 24 20 29 28 26 27 29 29 28 28
5 3 4 2 1 4 1 3 2 4 7 6 7 8 8 10 9 8 8 9 10 10 8 8 12 17 21 23 24 22 20 17 17 14 14 18 15 25 19 19 23 29 31 30 30 33 32 32 30
6 3 3 3 2 1 2 3 6 4 7 8 9 10 10 10 11 9 8 6 9 9 6 5 11 17 21 24 25 26 27 25 21 20 16 17 12 15 23 19 20 30 33 33 35 37 37 33 33
6 4 5 3 1 1 2 5 3 6 6 7 9 8 11 12 13 12 10 10 10 11 8 7 11 17 21 24 27 28 29 31 29 23 22 19 16 9 16 25 22 26 26 36 36 40 39 37 36
5 6 3 3 0 1 4 7 6 10 7 7 10 14 12 15 15 14 13 13 13 12 12 13 16 19 20 23 26 30 31 32 33 29 25 23 20 13 11 15 26 25 26 32 11 45 45 41 40
6 4 4 3 3 1 6 9 11 14 12 11 12 13 13 16 17 16 17 17 16 16 15 15 17 20 23 24 26 29 32 33 34 34 30 26 23 17 13 12 23 29 21 30 21 29 47 44 44
3 4 4 2 2 5 8 10 3 6 6 8 10 12 15 17 18 17 20 20 19 19 18 19 19 20 24 26 28 30 33 35 35 35 34 30 25 23 16 14 14 26 36 21 26 19 48 47 47
5 3 2 3 7 3 14 5 8 6 4 9 14 17 18 21 21 22 20 21 21 21 20 21 23 23 24 28 31 33 35 38 38 38 37 33 28 24 19 16 16 17 25 41 18 37 35 45 49
2 1 5 2 9 1 8 2 7 6 4 15 16 15 15 19 23 23 23 25 24 25 24 23 24 25 26 29 33 37 40 41 41 40 39 36 28 24 22 19 18 17 23 28 31 35 22 52 52
7 4 5 5 3 6 6 9 4 8 9 20 14 12 14 17 20 23 23 25 26 27 26 27 27 27 28 33 37 41 44 44 43 41 39 36 30 23 24 22 20 22 21 23 36 37 16 51 54
6 6 4 8 5 6 16 22 19 18 17 19 13 11 12 14 16 17 20 24 28 28 28 29 29 28 30 36 41 39 37 37 43 44 38 34 29 25 22 24 22 22 22 23 27 39 50 29 55
4 5 11 8 4 12 6 21 20 17 17 18 14 11 11 12 12 15 17 18 23 28 29 29 29 29 32 38 42 40 37 38 37 35 36 31 28 26 23 25 25 24 25 24 23 28 46 42 52
3 6 8 9 1 9 12 25 13 5 11 16 14 13 13 13 12 12 14 16 20 24 26 27 27 29 34 39 45 42 38 40 36 36 33 28 27 26 24 26 27 26 26 25 22 24 27 37 36
4 4 5 8 14 2 14 8 4 4 9 12 17 17 17 18 15 12 14 17 20 24 26 25 28 31 37 44 46 34 29 28 28 24 22 26 26 27 25 26 29 28 28 27 26 25 33 36 38
4 1 5 14 10 4 6 5 5 4 10 13 18 18 19 18 19 17 17 19 21 24 24 28 34 37 41 51 38 31 29 29 27 26 27 29 29 28 28 26 29 30 30 30 28 26 26 33 41
4 5 8 3 3 3 1 3 5 2 7 12 16 17 16 15 17 21 22 22 22 24 28 34 38 42 49 45 32 30 30 28 27 26 27 26 27 29 29 27 30 32 31 31 30 31 28 30 43
8 4 3 3 2 2 1 5 7 5 5 3 7 11 13 12 15 18 21 23 26 22 25 32 36 46 40 33 31 30 30 31 30 28 27 26 24 24 28 29 30 32 32 33 33 34 31 29 40
3 4 4 3 2 4 4 6 11 7 7 7 6 9 10 12 16 18 18 20 23 23 25 30 30 30 31 32 33 32 31 30 31 30 29 28 26 24 24 28 29 32 32 34 34 36 35 29 38
4 2 2 6 7 13 4 7 3 4 3 8 12 14 16 16 15 17 20 21 21 24 27 28 29 31 31 31 31 31 32 33 31 29 29 29 28 26 24 26 28 32 33 34 34 38 41 31 38
2 1 1 1 1 4 3 8 15 4 7 10 11 10 14 14 15 18 19 20 23 24 26 28 31 32 32 32 31 29 29 30 32 30 29 30 29 29 28 28 28 31 33 33 36 39 45 37 31
2 3 1 1 5 7 5 7 10 9 4 5 5 8 15 16 18 21 23 23 23 26 30 31 31 32 32 31 30 29 28 28 30 31 31 31 31 31 31 30 28 28 32 32 37 39 43 42 33
3 2 1 1 2 4 6 8 6 9 3 6 7 14 25 26 28 28 28 26 26 30 31 30 32 31 32 30 29 28 28 28 28 30 31 32 31 30 32 32 31 31 30 30 35 40 41 48 40
2 1 4 3 3 1 3 11 3 6 6 8 18 30 39 36 35 33 28 26 27 31 30 28 31 31 32 29 29 29 28 28 29 30 31 30 32 31 32 33 33 33 32 31 33 36 39 47 49
Wind_Direction
75 109 127 116 202 144 82 70 23 26 33 8 1 13 45 35 353 343 264 338 348 352 352 351 346 345 348 344 347 338 331 328 217 220 244 224 229 221 220 215 209 198 194 188 181 174 167 164 161
72 102 88 108 303 27 89 62 46 28 355 336 352 340 351 58 48 332 328 326 340 344 344 341 339 339 341 340 342 340 333 318 283 226 223 221 231 226 222 214 212 204 200 195 188 179 170 168 166
85 98 94 67 36 59 76 92 28 17 24 28 354 23 331 151 183 194 287 327 342 339 337 335 333 333 332 334 333 334 335 329 303 265 233 231 227 228 219 212 212 211 206 197 190 183 178 174 170
137 68 62 58 79 81 68 63 4 356 297 23 355 267 312 224 184 223 310 335 339 336 336 336 335 334 333 329 329 335 326 324 314 296 243 236 232 233 224 213 205 211 209 202 192 186 181 178 174
95 78 86 82 77 111 96 24 342 353 0 344 343 343 282 237 233 270 317 328 330 331 332 333 334 333 332 330 324 327 328 317 315 304 283 245 236 235 230 226 206 209 211 203 197 188 184 181 180
59 43 56 59 87 128 120 15 289 335 316 316 317 306 272 244 255 276 313 327 330 331 330 331 334 338 334 331 328 321 324 316 307 304 299 273 240 235 232 227 213 197 213 208 204 195 189 185 185
76 49 74 98 95 164 137 356 288 324 305 325 307 276 267 239 254 278 305 321 327 332 332 335 334 340 357 349 334 328 319 319 310 289 293 280 269 231 229 228 220 197 200 214 210 200 194 190 187
79 88 113 94 107 100 119 335 258 271 314 305 243 266 298 253 260 264 292 310 320 328 333 347 355 356 5 16 4 344 331 320 321 303 285 291 283 257 234 227 225 201 200 210 213 205 197 194 190
65 89 104 119 166 85 88 340 247 248 263 264 242 247 260 276 250 257 279 298 313 322 332 358 9 12 9 13 18 8 355 335 323 314 289 289 306 270 250 235 222 201 204 198 215 206 200 197 192
37 71 94 60 59 62 319 279 299 278 272 271 251 247 274 258 242 247 250 269 291 306 308 346 3 6 7 4 9 16 10 2 342 330 319 300 316 301 261 245 238 208 208 209 207 207 203 197 188
24 69 122 94 70 338 302 283 250 281 280 258 276 271 258 247 243 244 251 263 265 281 280 298 338 349 355 356 357 2 7 4 357 340 330 319 312 299 258 261 247 231 224 211 202 211 204 194 191
93 80 96 125 6 339 307 299 278 252 255 279 269 278 263 239 236 246 247 259 268 276 280 286 305 325 340 347 350 350 354 357 358 351 336 328 318 310 272 263 239 239 244 217 238 210 202 196 197
75 123 107 143 67 348 301 271 281 261 269 275 280 275 256 241 239 245 249 259 263 271 276 283 297 311 325 333 339 342 342 346 349 351 344 331 323 313 289 283 261 248 261 225 244 215 204 198 199
93 115 113 127 360 315 331 302 277 231 248 276 276 275 265 251 246 249 247 259 259 266 270 277 289 302 314 322 328 333 336 337 338 340 342 334 322 314 301 273 258 246 246 273 232 293 201 199 201
118 130 148 56 343 309 330 239 222 207 262 277 276 283 271 260 258 250 251 256 258 265 267 276 288 298 309 317 322 326 329 329 329 330 331 332 320 310 299 283 262 255 246 252 263 239 195 206 204
34 170 338 118 357 269 334 261 191 202 260 294 286 282 279 267 259 254 251 257 260 264 267 275 283 292 304 311 315 319 321 321 320 320 321 323 316 304 296 280 269 255 232 231 243 248 251 208 204
39 318 320 296 73 321 11 281 215 215 262 292 286 285 286 285 268 257 254 255 258 264 269 275 281 290 300 307 312 314 315 314 313 312 312 314 308 299 289 278 266 262 250 235 235 241 265 200 199
320 310 280 275 347 327 291 265 266 263 259 265 271 280 286 291 292 275 263 254 254 259 266 274 280 289 300 306 311 312 310 310 309 308 305 306 299 295 282 276 265 259 254 249 235 219 239 251 197
291 272 273 274 340 330 293 290 285 276 245 237 241 253 269 283 300 290 283 269 256 259 263 269 276 288 296 304 308 308 305 304 302 301 301 299 291 287 280 271 265 254 253 246 229 224 227 247 183
271 274 288 299 165 323 307 297 297 251 217 216 228 242 257 272 286 294 292 276 264 263 265 268 274 285 295 307 310 303 300 299 296 295 294 293 287 282 274 268 263 256 248 246 238 211 209 222 190
253 256 317 289 319 294 307 270 232 185 237 240 243 250 257 259 266 276 282 276 271 267 265 268 273 282 298 312 306 299 296 294 294 293 290 290 285 280 274 263 261 257 250 245 238 210 209 214 243
300 25 312 313 334 312 360 289 266 232 254 242 248 245 255 257 261 268 273 271 268 271 269 268 269 279 292 306 299 294 289 286 284 283 283 283 282 277 273 263 258 256 251 244 239 223 204 204 230
333 323 309 293 255 301 106 267 259 316 261 247 238 240 251 260 263 269 275 275 277 277 278 275 274 282 294 298 293 290 285 283 284 281 281 281 279 275 271 264 256 255 250 245 239 232 211 200 204
314 286 218 212 243 245 104 356 280 210 210 216 225 233 244 264 275 279 284 285 283 283 290 290 286 290 297 298 294 286 282 281 280 277 277 277 275 273 270 265 256 252 250 242 240 233 219 203 196
302 283 308 313 296 305 153 276 257 256 240 253 256 250 258 277 290 289 294 295 289 280 293 295 297 295 297 295 293 288 282 279 276 274 274 273 270 268 268 265 257 253 249 244 237 236 225 212 198
8 353 14 305 314 307 123 233 243 210 278 257 258 269 274 276 301 298 299 297 296 293 297 300 299 297 296 293 287 285 281 277 274 271 270 267 268 265 263 263 258 251 247 243 236 234 229 222 199
36 245 18 142 206 289 255 269 273 260 243 247 256 263 274 278 295 302 304 300 300 301 302 302 302 301 298 293 288 284 278 274 275 273 270 266 263 262 261 260 259 251 249 241 236 232 229 226 206
304 99 236 131 302 298 257 284 258 279 282 234 230 272 306 301 302 305 310 310 309 309 311 307 304 301 300 294 287 282 276 272 270 270 268 265 264 258 257 255 254 253 250 241 237 232 229 225 215
150 196 110 337 287 271 301 287 202 255 270 283 299 298 311 310 318 314 315 313 312 314 312 307 306 304 300 296 290 283 277 273 269 264 264 263 261 257 252 249 249 250 247 242 238 233 227 226 216
326 243 205 232 200 243 316 267 275 257 272 284 288 308 315 313 319 316 312 311 314 313 313 306 305 303 301 297 290 284 280 276 271 265 262 259 258 254 249 246 245 244 244 241 238 231 227 227 223